ETD67B OMAA-EDDM

Flight info

Callsign ETD67B
Flight time N/A
Altitude 36000
Route DAXIB Q563 UKUVO G462 TUMAK L602 GADSI M860 KODAV/N0495F380 M860 NINVA UM860 ODALI UL852 NEGEM DCT KOMAN DCT MOPUG DCT SUNIS DCT VATET DCT REDBU Q112 NAPSA NAPSA4A
Aircraft A35K/H-SDE2E3GHIJ3J4J5LM1ORWXY/LB1D1

Departure

Time 2026-04-30 09:26
Airport Zayed International Airport (OMAA)

Arrival

Time N/A
Airport Munich Airport (EDDM)
Time Latitude Longitude Altitude Speed Heading
2026-04-30 08:53 24.44655 54.64494 86 ft 0 kts 232°
2026-04-30 09:11 24.44663 54.64505 82 ft 4 kts 232°
2026-04-30 09:12 24.44679 54.64529 86 ft 4 kts 231°
2026-04-30 09:12 24.44697 54.64549 87 ft 4 kts 246°
2026-04-30 09:12 24.44699 54.64573 86 ft 4 kts 290°
2026-04-30 09:12 24.44686 54.64591 85 ft 4 kts 331°
2026-04-30 09:13 24.44673 54.64599 86 ft 2 kts 322°
2026-04-30 09:13 24.44669 54.64603 82 ft 1 kts 322°
2026-04-30 09:13 24.44668 54.64603 84 ft 0 kts 322°
2026-04-30 09:17 24.44686 54.64587 82 ft 6 kts 322°
2026-04-30 09:17 24.44731 54.64554 87 ft 10 kts 332°
2026-04-30 09:18 24.44804 54.64523 83 ft 13 kts 346°
2026-04-30 09:18 24.44852 54.64550 86 ft 7 kts 71°
2026-04-30 09:18 24.44845 54.64618 86 ft 11 kts 111°
2026-04-30 09:18 24.44803 54.64699 87 ft 15 kts 123°
2026-04-30 09:19 24.44735 54.64796 83 ft 17 kts 129°
2026-04-30 09:19 24.44708 54.64835 87 ft 3 kts 118°
2026-04-30 09:19 24.44736 54.64897 82 ft 11 kts 33°
2026-04-30 09:19 24.44809 54.64951 82 ft 15 kts 37°
2026-04-30 09:20 24.44899 54.65025 87 ft 18 kts 37°
2026-04-30 09:20 24.45002 54.65114 87 ft 20 kts 38°
2026-04-30 09:20 24.45114 54.65209 84 ft 13 kts 38°
2026-04-30 09:20 24.45145 54.65255 84 ft 7 kts 84°
2026-04-30 09:21 24.45123 54.65312 82 ft 10 kts 123°
2026-04-30 09:21 24.45059 54.65403 85 ft 21 kts 128°
2026-04-30 09:21 24.44957 54.65546 87 ft 25 kts 128°
2026-04-30 09:21 24.44845 54.65703 88 ft 27 kts 128°
2026-04-30 09:22 24.44725 54.65873 85 ft 29 kts 128°
2026-04-30 09:22 24.44596 54.66053 88 ft 31 kts 128°
2026-04-30 09:22 24.44461 54.66243 89 ft 33 kts 128°
2026-04-30 09:22 24.44319 54.66444 91 ft 34 kts 128°
2026-04-30 09:23 24.44207 54.66600 91 ft 6 kts 128°
2026-04-30 09:23 24.44187 54.66628 86 ft 8 kts 128°
2026-04-30 09:23 24.44156 54.66672 90 ft 11 kts 128°
2026-04-30 09:23 24.44111 54.66735 88 ft 13 kts 127°
2026-04-30 09:24 24.44070 54.66794 89 ft 15 kts 126°
2026-04-30 09:24 24.44073 54.66859 86 ft 11 kts 44°
2026-04-30 09:24 24.44139 54.66920 90 ft 14 kts 37°
2026-04-30 09:24 24.44225 54.66992 90 ft 11 kts 37°
2026-04-30 09:25 24.44243 54.66992 85 ft 3 kts 347°
2026-04-30 09:25 24.44272 54.66972 90 ft 7 kts 315°
2026-04-30 09:25 24.44324 54.66903 91 ft 24 kts 308°
2026-04-30 09:25 24.44602 54.66511 90 ft 104 kts 308°
2026-04-30 09:26 24.45196 54.65677 88 ft 170 kts 307°
2026-04-30 09:26 24.45939 54.64585 776 ft 176 kts 308°
2026-04-30 09:26 24.46641 54.63510 1684 ft 174 kts 311°
2026-04-30 09:26 24.47684 54.62821 2242 ft 181 kts 344°
2026-04-30 09:27 24.48916 54.62583 2936 ft 179 kts 350°
2026-04-30 09:27 24.50143 54.62294 3570 ft 185 kts 345°
2026-04-30 09:27 24.51435 54.61864 3928 ft 207 kts 341°
2026-04-30 09:27 24.52874 54.61275 4096 ft 234 kts 338°
2026-04-30 09:28 24.54430 54.60566 4243 ft 248 kts 336°
2026-04-30 09:28 24.56042 54.59798 4469 ft 260 kts 336°
2026-04-30 09:28 24.57721 54.58988 5245 ft 263 kts 335°
2026-04-30 09:28 24.59367 54.58188 6299 ft 257 kts 335°
2026-04-30 09:29 24.60999 54.57376 7137 ft 259 kts 333°
2026-04-30 09:29 24.62473 54.56206 7823 ft 267 kts 313°
2026-04-30 09:29 24.63703 54.54603 8302 ft 282 kts 307°
2026-04-30 09:29 24.64899 54.52860 8982 ft 288 kts 306°
2026-04-30 09:30 24.66116 54.51089 9688 ft 293 kts 306°
2026-04-30 09:30 24.67364 54.49286 10339 ft 303 kts 306°
2026-04-30 09:30 24.68687 54.47390 10685 ft 322 kts 306°
2026-04-30 09:30 24.70092 54.45376 11035 ft 341 kts 307°
2026-04-30 09:31 24.71576 54.43252 11348 ft 359 kts 307°
2026-04-30 09:31 24.73123 54.41042 11834 ft 370 kts 307°
2026-04-30 09:31 24.74705 54.38785 12540 ft 374 kts 306°
2026-04-30 09:31 24.76301 54.36506 13274 ft 378 kts 306°
2026-04-30 09:32 24.77911 54.34206 14016 ft 381 kts 306°
2026-04-30 09:32 24.79536 54.31884 14723 ft 385 kts 306°
2026-04-30 09:32 24.81177 54.29536 15396 ft 389 kts 306°
2026-04-30 09:32 24.82830 54.27168 16075 ft 392 kts 306°
2026-04-30 09:33 24.84501 54.24776 16751 ft 396 kts 306°
2026-04-30 09:33 24.86184 54.22365 17387 ft 399 kts 305°
2026-04-30 09:33 24.87884 54.19928 18032 ft 402 kts 305°
2026-04-30 09:33 24.89596 54.17475 18674 ft 406 kts 305°
2026-04-30 09:34 24.91320 54.15000 19302 ft 409 kts 305°
2026-04-30 09:34 24.93108 54.12539 19919 ft 413 kts 308°
2026-04-30 09:34 24.95015 54.10149 20519 ft 418 kts 310°
2026-04-30 09:34 24.96985 54.07781 21116 ft 421 kts 310°
2026-04-30 09:35 24.98982 54.05401 21717 ft 424 kts 310°
2026-04-30 09:35 25.00988 54.02995 22274 ft 428 kts 310°
2026-04-30 09:35 25.02996 54.00561 22832 ft 431 kts 309°
2026-04-30 09:35 25.05008 53.98097 23382 ft 434 kts 309°
2026-04-30 09:36 25.07025 53.95611 23918 ft 437 kts 309°
2026-04-30 09:36 25.09054 53.93097 24449 ft 440 kts 309°
2026-04-30 09:36 25.11100 53.90559 24984 ft 444 kts 309°
2026-04-30 09:36 25.13160 53.88000 25527 ft 448 kts 309°
2026-04-30 09:37 25.15238 53.85418 26077 ft 452 kts 309°
2026-04-30 09:37 25.17333 53.82816 26606 ft 455 kts 309°
2026-04-30 09:37 25.19451 53.80196 27116 ft 460 kts 309°
2026-04-30 09:37 25.21766 53.77722 27634 ft 466 kts 315°
2026-04-30 09:38 25.24210 53.75352 28131 ft 470 kts 316°
2026-04-30 09:38 25.26710 53.72998 28624 ft 474 kts 316°
2026-04-30 09:38 25.29247 53.70647 29081 ft 478 kts 317°
2026-04-30 09:38 25.31809 53.68289 29527 ft 482 kts 317°
2026-04-30 09:39 25.34394 53.65913 29971 ft 485 kts 317°
2026-04-30 09:39 25.36992 53.63518 30386 ft 488 kts 317°
2026-04-30 09:39 25.39607 53.61102 30743 ft 492 kts 316°
2026-04-30 09:39 25.42238 53.58663 31096 ft 495 kts 316°
2026-04-30 09:40 25.43989 53.57041 31326 ft 497 kts 317°
2026-04-30 09:40 25.46651 53.54573 31662 ft 500 kts 316°
2026-04-30 09:40 25.49323 53.52090 32000 ft 503 kts 316°
2026-04-30 09:40 25.52043 53.49559 32348 ft 505 kts 316°
2026-04-30 09:41 25.54729 53.47060 32836 ft 504 kts 316°
2026-04-30 09:41 25.57406 53.44568 33277 ft 503 kts 316°
2026-04-30 09:41 25.60085 53.42072 33691 ft 503 kts 316°
2026-04-30 09:41 25.62754 53.39580 34125 ft 502 kts 316°
2026-04-30 09:42 25.65392 53.37049 34537 ft 501 kts 315°
2026-04-30 09:42 25.67994 53.34500 34969 ft 499 kts 315°
2026-04-30 09:42 25.70586 53.31941 35405 ft 498 kts 315°
2026-04-30 09:42 25.73168 53.29391 35762 ft 498 kts 315°
2026-04-30 09:43 25.78339 53.24300 35882 ft 496 kts 315°
2026-04-30 09:43 25.83234 53.18938 35879 ft 492 kts 305°
2026-04-30 09:44 25.86700 53.12483 35880 ft 486 kts 293°
2026-04-30 09:44 25.89540 53.05673 35879 ft 486 kts 291°
2026-04-30 09:45 25.92278 52.98809 35879 ft 486 kts 291°
2026-04-30 09:45 25.95022 52.91961 35880 ft 486 kts 291°
2026-04-30 09:46 25.97784 52.85119 35879 ft 485 kts 291°
2026-04-30 09:46 26.00552 52.78279 35879 ft 485 kts 291°
2026-04-30 09:47 26.03356 52.71461 35882 ft 485 kts 292°
2026-04-30 09:47 26.06382 52.64774 35879 ft 484 kts 294°
2026-04-30 09:48 26.09452 52.58106 35880 ft 484 kts 294°
2026-04-30 09:48 26.12489 52.51422 35888 ft 484 kts 293°
2026-04-30 09:49 26.15511 52.44729 35888 ft 484 kts 293°
2026-04-30 09:49 26.18529 52.38022 35887 ft 484 kts 293°
2026-04-30 09:50 26.21542 52.31315 35888 ft 484 kts 293°
2026-04-30 09:50 26.24517 52.24589 35888 ft 484 kts 292°
2026-04-30 09:51 26.27423 52.17828 35886 ft 484 kts 292°
2026-04-30 09:51 26.30326 52.11064 35888 ft 484 kts 292°
2026-04-30 09:52 26.33239 52.04302 35889 ft 484 kts 292°
2026-04-30 09:52 26.36155 51.97549 35889 ft 484 kts 292°
2026-04-30 09:53 26.38763 51.90661 35888 ft 481 kts 288°
2026-04-30 09:53 26.41140 51.83686 35888 ft 481 kts 288°
2026-04-30 09:54 26.43474 51.76700 35887 ft 481 kts 287°
2026-04-30 09:54 26.45806 51.69706 35897 ft 481 kts 287°
2026-04-30 09:55 26.48145 51.62718 35904 ft 481 kts 287°
2026-04-30 09:55 26.50475 51.55725 35906 ft 480 kts 287°
2026-04-30 09:56 26.52792 51.48739 35906 ft 479 kts 287°
2026-04-30 09:56 26.55107 51.41757 35907 ft 479 kts 287°
2026-04-30 09:57 26.57419 51.34773 35907 ft 479 kts 287°
2026-04-30 09:57 26.59730 51.27788 35906 ft 479 kts 287°
2026-04-30 09:58 26.62044 51.20808 35906 ft 479 kts 287°
2026-04-30 09:58 26.64355 51.13832 35905 ft 479 kts 287°
2026-04-30 09:59 26.68956 50.99872 35906 ft 478 kts 287°
2026-04-30 10:00 26.72326 50.89374 35906 ft 478 kts 286°
2026-04-30 10:01 26.75662 50.78869 35906 ft 478 kts 286°
2026-04-30 10:02 26.79050 50.68391 35905 ft 479 kts 290°
2026-04-30 10:02 26.82456 50.61946 35907 ft 486 kts 303°
2026-04-30 10:03 26.86646 50.56000 35897 ft 487 kts 305°
2026-04-30 10:03 26.90960 50.50143 35897 ft 487 kts 305°
2026-04-30 10:04 26.95426 50.44417 35898 ft 489 kts 309°
2026-04-30 10:04 27.00173 50.38931 35897 ft 490 kts 310°
2026-04-30 10:05 27.04917 50.33439 35903 ft 490 kts 309°
2026-04-30 10:05 27.09588 50.27886 35916 ft 489 kts 308°
2026-04-30 10:06 27.14213 50.22284 35915 ft 489 kts 308°
2026-04-30 10:06 27.19397 50.17265 35915 ft 495 kts 317°
2026-04-30 10:07 27.24915 50.12630 35916 ft 496 kts 319°
2026-04-30 10:07 27.30494 50.08058 35907 ft 496 kts 319°
2026-04-30 10:08 27.36068 50.03479 35907 ft 496 kts 319°
2026-04-30 10:08 27.41559 49.98784 35906 ft 495 kts 317°
2026-04-30 10:09 27.46950 49.93978 35915 ft 494 kts 316°
2026-04-30 10:09 27.52345 49.89176 35917 ft 494 kts 316°
2026-04-30 10:10 27.57750 49.84393 35915 ft 494 kts 317°
2026-04-30 10:10 27.63162 49.79616 35915 ft 494 kts 317°
2026-04-30 10:11 27.68568 49.74842 35925 ft 494 kts 317°
2026-04-30 10:11 27.73977 49.70058 35929 ft 494 kts 317°
2026-04-30 10:12 27.79381 49.65270 35933 ft 494 kts 317°
2026-04-30 10:12 27.84772 49.60466 35931 ft 493 kts 316°
2026-04-30 10:13 27.90153 49.55648 35932 ft 494 kts 316°
2026-04-30 10:13 27.95537 49.50826 35937 ft 493 kts 316°
2026-04-30 10:14 28.00916 49.46005 35942 ft 493 kts 316°
2026-04-30 10:14 28.08963 49.38734 35953 ft 493 kts 316°
2026-04-30 10:15 28.14302 49.33843 35949 ft 494 kts 316°
2026-04-30 10:15 28.19634 49.28955 35943 ft 493 kts 316°
2026-04-30 10:16 28.24976 49.24061 35943 ft 493 kts 316°
2026-04-30 10:17 28.32988 49.16727 35943 ft 493 kts 316°
2026-04-30 10:17 28.41116 49.09526 35949 ft 497 kts 320°
2026-04-30 10:18 28.46820 49.05083 35953 ft 497 kts 321°
2026-04-30 10:19 28.54463 48.99238 35953 ft 498 kts 321°
2026-04-30 10:19 28.60210 48.94838 35953 ft 497 kts 321°
2026-04-30 10:20 28.65941 48.90433 35952 ft 497 kts 320°
2026-04-30 10:20 28.74534 48.83808 35953 ft 497 kts 320°
2026-04-30 10:21 28.80257 48.79389 35953 ft 497 kts 320°
2026-04-30 10:21 28.85997 48.74983 35953 ft 497 kts 321°
2026-04-30 10:22 28.91745 48.70586 35958 ft 497 kts 321°
2026-04-30 10:22 28.97494 48.66179 35962 ft 498 kts 321°
2026-04-30 10:23 29.03236 48.61766 35962 ft 497 kts 321°
2026-04-30 10:23 29.08970 48.57356 35962 ft 497 kts 320°
2026-04-30 10:24 29.14696 48.52941 35937 ft 496 kts 320°
2026-04-30 10:24 29.20417 48.48523 35934 ft 496 kts 320°
2026-04-30 10:25 29.26139 48.44100 35934 ft 496 kts 320°
2026-04-30 10:25 29.31861 48.39670 35934 ft 496 kts 320°
2026-04-30 10:26 29.37575 48.35243 35943 ft 496 kts 320°
2026-04-30 10:26 29.43285 48.30815 35934 ft 496 kts 320°
2026-04-30 10:27 29.49164 48.26622 35925 ft 499 kts 325°
2026-04-30 10:27 29.55244 48.22762 35934 ft 500 kts 326°
2026-04-30 10:28 29.61311 48.18887 35924 ft 499 kts 325°
2026-04-30 10:28 29.67338 48.14949 35925 ft 498 kts 324°
2026-04-30 10:29 29.73344 48.10979 35924 ft 498 kts 324°
2026-04-30 10:29 29.79348 48.07002 35916 ft 498 kts 324°
2026-04-30 10:30 29.85351 48.03023 35916 ft 498 kts 324°
2026-04-30 10:30 29.91354 47.99040 35915 ft 498 kts 324°
2026-04-30 10:31 29.97357 47.95050 35915 ft 498 kts 324°
2026-04-30 10:31 30.02946 47.90499 35915 ft 486 kts 311°
2026-04-30 10:32 30.07542 47.84834 35915 ft 483 kts 306°
2026-04-30 10:32 30.11931 47.78978 35916 ft 482 kts 305°
2026-04-30 10:33 30.16290 47.73090 35935 ft 483 kts 305°
2026-04-30 10:33 30.20666 47.67208 35943 ft 482 kts 306°
2026-04-30 10:34 30.25043 47.61342 35943 ft 482 kts 306°
2026-04-30 10:34 30.29414 47.55478 35944 ft 481 kts 306°
2026-04-30 10:35 30.33787 47.49603 35943 ft 481 kts 306°
2026-04-30 10:35 30.38148 47.43737 35943 ft 480 kts 306°
2026-04-30 10:36 30.42503 47.37866 35934 ft 481 kts 306°
2026-04-30 10:36 30.46860 47.31983 35934 ft 481 kts 306°
2026-04-30 10:37 30.51223 47.26088 35934 ft 481 kts 306°
2026-04-30 10:37 30.55602 47.20226 35933 ft 482 kts 308°
2026-04-30 10:38 30.60640 47.15013 35937 ft 487 kts 315°
2026-04-30 10:38 30.65911 47.10053 35943 ft 488 kts 316°
2026-04-30 10:39 30.71213 47.05137 35934 ft 487 kts 316°
2026-04-30 10:39 30.76505 47.00208 35934 ft 487 kts 316°
2026-04-30 10:40 30.81783 46.95266 35934 ft 487 kts 316°
2026-04-30 10:40 30.87057 46.90315 35934 ft 487 kts 316°
2026-04-30 10:41 30.92327 46.85360 35935 ft 487 kts 316°
2026-04-30 10:41 30.97593 46.80402 35934 ft 486 kts 316°
2026-04-30 10:42 31.02850 46.75445 35934 ft 486 kts 316°
2026-04-30 10:42 31.08108 46.70479 35934 ft 486 kts 316°
2026-04-30 10:43 31.13364 46.65511 35939 ft 486 kts 316°
2026-04-30 10:43 31.18613 46.60540 35943 ft 486 kts 316°
2026-04-30 10:44 31.23865 46.55563 35944 ft 486 kts 316°
2026-04-30 10:44 31.29104 46.50587 35943 ft 485 kts 316°
2026-04-30 10:45 31.34335 46.45611 35943 ft 485 kts 316°
2026-04-30 10:45 31.39567 46.40627 35977 ft 485 kts 316°
2026-04-30 10:46 31.44795 46.35642 36000 ft 485 kts 316°
2026-04-30 10:46 31.50020 46.30650 36008 ft 484 kts 316°
2026-04-30 10:47 31.55237 46.25657 36008 ft 485 kts 316°
2026-04-30 10:47 31.60458 46.20653 36009 ft 484 kts 316°
2026-04-30 10:48 31.65676 46.15646 36381 ft 484 kts 316°
2026-04-30 10:48 31.68277 46.13148 36761 ft 484 kts 316°
2026-04-30 10:48 31.70922 46.10695 37141 ft 485 kts 320°
2026-04-30 10:49 31.73775 46.08584 37588 ft 487 kts 327°
2026-04-30 10:49 31.76822 46.06826 37932 ft 489 kts 330°
2026-04-30 10:49 31.83102 46.03700 38026 ft 491 kts 333°
2026-04-30 10:50 31.89469 46.00738 38027 ft 492 kts 333°
2026-04-30 10:50 31.95831 45.97755 38027 ft 492 kts 333°
2026-04-30 10:51 32.02172 45.94738 38032 ft 492 kts 333°
2026-04-30 10:51 32.08515 45.91699 38026 ft 492 kts 333°
2026-04-30 10:52 32.14851 45.88660 38033 ft 492 kts 333°
2026-04-30 10:52 32.21190 45.85613 38036 ft 492 kts 333°
2026-04-30 10:53 32.27528 45.82564 38036 ft 492 kts 333°
2026-04-30 10:53 32.33864 45.79512 38036 ft 492 kts 333°
2026-04-30 10:54 32.40202 45.76454 38040 ft 492 kts 333°
2026-04-30 10:54 32.46534 45.73393 38045 ft 492 kts 333°
2026-04-30 10:55 32.52868 45.70327 38045 ft 492 kts 333°
2026-04-30 10:55 32.59197 45.67258 38045 ft 491 kts 333°
2026-04-30 10:56 32.65521 45.64186 38045 ft 491 kts 333°
2026-04-30 10:56 32.71844 45.61113 38055 ft 491 kts 333°
2026-04-30 10:57 32.78169 45.58034 38054 ft 491 kts 333°
2026-04-30 10:57 32.84489 45.54951 38054 ft 491 kts 333°
2026-04-30 10:58 32.90819 45.51858 38054 ft 492 kts 333°
2026-04-30 10:58 32.97150 45.48763 38054 ft 491 kts 333°
2026-04-30 10:59 33.03471 45.45666 38054 ft 491 kts 333°
2026-04-30 10:59 33.08727 45.43087 38054 ft 491 kts 333°
2026-04-30 11:00 33.15041 45.39983 38055 ft 491 kts 333°
2026-04-30 11:00 33.21352 45.36876 38055 ft 491 kts 333°
2026-04-30 11:01 33.27664 45.33766 38054 ft 491 kts 333°
2026-04-30 11:01 33.33970 45.30656 38063 ft 490 kts 333°
2026-04-30 11:02 33.40279 45.27536 38064 ft 491 kts 333°
2026-04-30 11:02 33.46584 45.24411 38055 ft 490 kts 333°
2026-04-30 11:03 33.52888 45.21287 38063 ft 490 kts 333°
2026-04-30 11:04 33.62341 45.16588 38059 ft 490 kts 333°
2026-04-30 11:04 33.68636 45.13453 38055 ft 490 kts 333°
2026-04-30 11:05 33.74936 45.10306 38054 ft 490 kts 333°
2026-04-30 11:05 33.81231 45.07161 38054 ft 490 kts 333°
2026-04-30 11:06 33.87526 45.04013 38054 ft 490 kts 333°
2026-04-30 11:06 33.93827 45.00857 38055 ft 490 kts 333°
2026-04-30 11:07 34.00116 44.97703 38054 ft 490 kts 333°
2026-04-30 11:07 34.06406 44.94537 38045 ft 490 kts 334°
2026-04-30 11:08 34.12694 44.91370 38045 ft 490 kts 334°
2026-04-30 11:08 34.18984 44.88197 38045 ft 490 kts 334°
2026-04-30 11:09 34.25272 44.85018 38045 ft 490 kts 334°
2026-04-30 11:09 34.31559 44.81837 38036 ft 490 kts 334°
2026-04-30 11:10 34.37841 44.78652 38025 ft 489 kts 334°
2026-04-30 11:10 34.44123 44.75460 38027 ft 490 kts 334°
2026-04-30 11:11 34.50401 44.72268 38026 ft 489 kts 334°
2026-04-30 11:11 34.56680 44.69070 38026 ft 489 kts 334°
2026-04-30 11:12 34.62958 44.65870 38020 ft 489 kts 334°
2026-04-30 11:12 34.69234 44.62664 38017 ft 489 kts 334°
2026-04-30 11:13 34.75507 44.59450 38017 ft 489 kts 334°
2026-04-30 11:13 34.81779 44.56235 38010 ft 489 kts 334°
2026-04-30 11:14 34.88047 44.53015 38008 ft 489 kts 334°
2026-04-30 11:14 34.94313 44.49790 38008 ft 489 kts 334°
2026-04-30 11:15 35.00578 44.46560 38005 ft 489 kts 334°
2026-04-30 11:15 35.06840 44.43325 37999 ft 488 kts 334°
2026-04-30 11:16 35.13097 44.40092 37999 ft 488 kts 334°
2026-04-30 11:16 35.19344 44.36859 37999 ft 488 kts 334°
2026-04-30 11:17 35.25589 44.33619 37999 ft 488 kts 334°
2026-04-30 11:17 35.31828 44.30377 37999 ft 487 kts 334°
2026-04-30 11:18 35.38071 44.27126 37999 ft 487 kts 334°
2026-04-30 11:18 35.47429 44.22244 37990 ft 487 kts 334°
2026-04-30 11:19 35.53665 44.18986 37999 ft 487 kts 334°
2026-04-30 11:19 35.59891 44.15723 37999 ft 487 kts 334°
2026-04-30 11:20 35.66125 44.12453 37999 ft 487 kts 334°
2026-04-30 11:20 35.72354 44.09181 38008 ft 487 kts 334°
2026-04-30 11:21 35.78577 44.05906 38017 ft 486 kts 334°
2026-04-30 11:21 35.84790 44.02632 38026 ft 486 kts 334°
2026-04-30 11:22 35.91010 43.99350 38031 ft 486 kts 334°
2026-04-30 11:22 35.97227 43.96056 38036 ft 487 kts 334°
2026-04-30 11:23 36.03449 43.92755 38043 ft 486 kts 334°
2026-04-30 11:24 36.12765 43.87815 38045 ft 486 kts 334°
2026-04-30 11:24 36.18983 43.84508 38046 ft 487 kts 334°
2026-04-30 11:25 36.28302 43.79530 38045 ft 486 kts 334°
2026-04-30 11:26 36.40713 43.72897 38055 ft 485 kts 334°
2026-04-30 11:26 36.46920 43.69570 38054 ft 485 kts 334°
2026-04-30 11:27 36.53118 43.66232 38054 ft 485 kts 334°
2026-04-30 11:27 36.59315 43.62897 38063 ft 486 kts 334°
2026-04-30 11:28 36.68607 43.57888 38064 ft 485 kts 334°
2026-04-30 11:29 36.74838 43.54515 38074 ft 485 kts 334°
2026-04-30 11:29 36.84101 43.49499 38083 ft 484 kts 334°
2026-04-30 11:30 36.93323 43.44489 38083 ft 483 kts 334°
2026-04-30 11:31 36.99485 43.41134 38087 ft 483 kts 334°
2026-04-30 11:31 37.05652 43.37769 38089 ft 484 kts 334°
2026-04-30 11:32 37.11817 43.34393 38087 ft 484 kts 334°
2026-04-30 11:32 37.17982 43.31017 38089 ft 483 kts 334°
2026-04-30 11:33 37.27222 43.25953 38100 ft 483 kts 334°
2026-04-30 11:33 37.32990 43.21747 38088 ft 478 kts 319°
2026-04-30 11:34 37.37504 43.15669 38093 ft 471 kts 303°
2026-04-30 11:34 37.40847 43.08616 38081 ft 469 kts 296°
2026-04-30 11:35 37.43833 43.01308 38082 ft 470 kts 295°
2026-04-30 11:35 37.46825 42.94002 38083 ft 470 kts 296°
2026-04-30 11:36 37.49861 42.86769 38082 ft 471 kts 296°
2026-04-30 11:36 37.52941 42.79496 38079 ft 471 kts 296°
2026-04-30 11:37 37.56020 42.72215 38074 ft 471 kts 296°
2026-04-30 11:37 37.59090 42.64931 38085 ft 471 kts 296°
2026-04-30 11:38 37.62162 42.57644 38072 ft 470 kts 296°
2026-04-30 11:38 37.65231 42.50353 38075 ft 470 kts 296°
2026-04-30 11:39 37.68290 42.43063 38073 ft 470 kts 296°
2026-04-30 11:39 37.71351 42.35749 38063 ft 471 kts 296°
2026-04-30 11:40 37.74399 42.28436 38064 ft 470 kts 296°
2026-04-30 11:40 37.77445 42.21118 38064 ft 471 kts 296°
2026-04-30 11:41 37.79995 42.14987 38063 ft 471 kts 296°
2026-04-30 11:41 37.83042 42.07663 38064 ft 471 kts 296°
2026-04-30 11:42 37.86078 42.00317 38055 ft 471 kts 296°
2026-04-30 11:42 37.89110 41.92972 38060 ft 471 kts 296°
2026-04-30 11:43 37.92681 41.86022 38066 ft 473 kts 307°
2026-04-30 11:43 37.96955 41.79663 38064 ft 474 kts 309°
2026-04-30 11:44 38.01333 41.73404 38064 ft 474 kts 309°
2026-04-30 11:44 38.05714 41.67154 38064 ft 474 kts 309°
2026-04-30 11:45 38.10073 41.60894 38063 ft 473 kts 309°
2026-04-30 11:45 38.14420 41.54614 38062 ft 473 kts 309°
2026-04-30 11:46 38.18757 41.48328 38064 ft 473 kts 309°
2026-04-30 11:46 38.23095 41.42028 38065 ft 473 kts 309°
2026-04-30 11:47 38.27429 41.35723 38072 ft 473 kts 309°
2026-04-30 11:47 38.31760 41.29418 38071 ft 473 kts 309°
2026-04-30 11:48 38.36083 41.23113 38072 ft 472 kts 309°
2026-04-30 11:48 38.40403 41.16801 38072 ft 472 kts 309°
2026-04-30 11:49 38.44713 41.10483 38074 ft 472 kts 309°
2026-04-30 11:49 38.48995 41.04146 38073 ft 471 kts 308°
2026-04-30 11:50 38.53188 40.97713 38074 ft 471 kts 308°
2026-04-30 11:50 38.57359 40.91268 38073 ft 471 kts 308°
2026-04-30 11:51 38.61543 40.84835 38074 ft 471 kts 308°
2026-04-30 11:51 38.65748 40.78413 38072 ft 471 kts 308°
2026-04-30 11:52 38.69984 40.72031 38073 ft 471 kts 309°
2026-04-30 11:52 38.74218 40.65645 38072 ft 470 kts 309°
2026-04-30 11:53 38.78444 40.59244 38088 ft 470 kts 308°
2026-04-30 11:53 38.82665 40.52829 38093 ft 470 kts 308°
2026-04-30 11:54 38.86873 40.46420 38093 ft 470 kts 308°
2026-04-30 11:54 38.91080 40.39999 38087 ft 470 kts 308°
2026-04-30 11:55 38.95282 40.33577 38093 ft 470 kts 308°
2026-04-30 11:55 38.99483 40.27140 38081 ft 469 kts 308°
2026-04-30 11:56 39.03674 40.20705 38082 ft 469 kts 308°
2026-04-30 11:56 39.07859 40.14266 38078 ft 469 kts 308°
2026-04-30 11:57 39.12040 40.07827 38073 ft 469 kts 308°
2026-04-30 11:57 39.16217 40.01377 38074 ft 469 kts 308°
2026-04-30 11:58 39.20384 39.94932 38073 ft 468 kts 308°
2026-04-30 11:58 39.24535 39.88491 38073 ft 467 kts 308°
2026-04-30 11:59 39.28682 39.82035 38072 ft 467 kts 308°
2026-04-30 11:59 39.32818 39.75581 38072 ft 467 kts 308°
2026-04-30 12:00 39.36960 39.69112 38074 ft 467 kts 308°
2026-04-30 12:00 39.41094 39.62643 38074 ft 467 kts 308°
2026-04-30 12:01 39.45227 39.56163 38072 ft 467 kts 308°
2026-04-30 12:01 39.49353 39.49677 38071 ft 467 kts 308°
2026-04-30 12:02 39.53471 39.43179 38072 ft 466 kts 307°
2026-04-30 12:02 39.57537 39.36627 38073 ft 466 kts 307°
2026-04-30 12:03 39.63611 39.26783 38073 ft 466 kts 307°
2026-04-30 12:04 39.67661 39.20220 38071 ft 466 kts 307°
2026-04-30 12:04 39.71713 39.13656 38073 ft 465 kts 307°
2026-04-30 12:05 39.75779 39.07109 38081 ft 466 kts 308°
2026-04-30 12:05 39.79881 39.00587 38081 ft 466 kts 308°
2026-04-30 12:06 39.83980 38.94060 38093 ft 466 kts 307°
2026-04-30 12:06 39.88068 38.87519 38089 ft 466 kts 307°
2026-04-30 12:07 39.92154 38.80966 38102 ft 466 kts 307°
2026-04-30 12:07 39.96230 38.74413 38102 ft 465 kts 307°
2026-04-30 12:08 40.00299 38.67858 38112 ft 465 kts 307°
2026-04-30 12:08 40.04361 38.61299 38108 ft 464 kts 307°
2026-04-30 12:09 40.08414 38.54742 38133 ft 464 kts 307°
2026-04-30 12:09 40.12459 38.48184 38126 ft 464 kts 307°
2026-04-30 12:10 40.16501 38.41614 38118 ft 464 kts 307°
2026-04-30 12:10 40.20541 38.35034 38128 ft 464 kts 307°
2026-04-30 12:11 40.24579 38.28446 38128 ft 464 kts 307°
2026-04-30 12:11 40.28608 38.21852 38140 ft 464 kts 307°
2026-04-30 12:12 40.32415 38.15054 38132 ft 462 kts 298°
2026-04-30 12:12 40.35105 38.07438 38134 ft 460 kts 291°
2026-04-30 12:13 40.37473 37.99646 38136 ft 460 kts 290°
2026-04-30 12:13 40.39794 37.91812 38142 ft 460 kts 290°
2026-04-30 12:14 40.42119 37.83995 38148 ft 460 kts 290°
2026-04-30 12:14 40.44450 37.76176 38136 ft 460 kts 290°
2026-04-30 12:15 40.46778 37.68356 38151 ft 459 kts 290°
2026-04-30 12:15 40.49102 37.60540 38133 ft 459 kts 290°
2026-04-30 12:16 40.51419 37.52723 38136 ft 459 kts 290°
2026-04-30 12:16 40.53728 37.44910 38133 ft 459 kts 290°
2026-04-30 12:17 40.57180 37.33184 38096 ft 459 kts 290°
2026-04-30 12:17 40.59470 37.25367 38096 ft 458 kts 290°
2026-04-30 12:18 40.61756 37.17545 38082 ft 458 kts 290°
2026-04-30 12:18 40.64036 37.09730 38082 ft 457 kts 289°
2026-04-30 12:19 40.66305 37.01914 38075 ft 457 kts 289°
2026-04-30 12:19 40.68569 36.94095 38071 ft 457 kts 289°
2026-04-30 12:20 40.70825 36.86275 38072 ft 457 kts 289°
2026-04-30 12:20 40.72699 36.79775 38081 ft 457 kts 289°
2026-04-30 12:21 40.74954 36.71941 38081 ft 457 kts 289°
2026-04-30 12:21 40.77202 36.64106 38081 ft 457 kts 289°
2026-04-30 12:22 40.79441 36.56274 38093 ft 456 kts 289°
2026-04-30 12:22 40.81673 36.48425 38073 ft 457 kts 289°
2026-04-30 12:23 40.83896 36.40575 38072 ft 456 kts 289°
2026-04-30 12:23 40.86116 36.32726 38073 ft 456 kts 289°
2026-04-30 12:24 40.88336 36.24870 38074 ft 456 kts 289°
2026-04-30 12:24 40.90549 36.17009 38074 ft 456 kts 289°
2026-04-30 12:25 40.92753 36.09148 38073 ft 456 kts 289°
2026-04-30 12:25 40.94959 36.01280 38064 ft 456 kts 289°
2026-04-30 12:26 40.97150 35.93416 38055 ft 456 kts 289°
2026-04-30 12:26 40.99335 35.85546 38045 ft 456 kts 289°
2026-04-30 12:27 41.01520 35.77670 38042 ft 456 kts 289°
2026-04-30 12:27 41.03694 35.69793 38036 ft 455 kts 288°
2026-04-30 12:28 41.05866 35.61911 38036 ft 455 kts 288°
2026-04-30 12:28 41.08031 35.54028 38036 ft 455 kts 288°
2026-04-30 12:29 41.10189 35.46140 38040 ft 455 kts 288°
2026-04-30 12:29 41.12342 35.38250 38045 ft 455 kts 288°
2026-04-30 12:30 41.14489 35.30358 38053 ft 455 kts 288°
2026-04-30 12:30 41.16630 35.22467 38059 ft 455 kts 288°
2026-04-30 12:31 41.18765 35.14573 38070 ft 455 kts 288°
2026-04-30 12:31 41.20893 35.06666 38079 ft 455 kts 288°
2026-04-30 12:32 41.23018 34.98754 38074 ft 455 kts 288°
2026-04-30 12:32 41.25138 34.90840 38082 ft 454 kts 288°
2026-04-30 12:33 41.27252 34.82928 38083 ft 455 kts 288°
2026-04-30 12:33 41.29363 34.75004 38089 ft 455 kts 288°
2026-04-30 12:34 41.31469 34.67073 38095 ft 455 kts 288°
2026-04-30 12:34 41.33571 34.59136 38090 ft 455 kts 288°
2026-04-30 12:35 41.35665 34.51204 38091 ft 454 kts 288°
2026-04-30 12:35 41.37755 34.43276 38081 ft 454 kts 288°
2026-04-30 12:36 41.39825 34.35395 38081 ft 454 kts 288°
2026-04-30 12:36 41.41895 34.27457 38073 ft 454 kts 288°
2026-04-30 12:37 41.43947 34.19507 38068 ft 453 kts 287°
2026-04-30 12:37 41.45995 34.11556 38063 ft 453 kts 287°
2026-04-30 12:38 41.48038 34.03604 38057 ft 453 kts 287°
2026-04-30 12:38 41.50081 33.95659 38055 ft 453 kts 287°
2026-04-30 12:39 41.52133 33.87654 38054 ft 453 kts 287°
2026-04-30 12:39 41.53367 33.82818 38055 ft 453 kts 287°
2026-04-30 12:40 41.54488 33.78418 38053 ft 453 kts 287°
2026-04-30 12:40 41.55399 33.74839 38053 ft 453 kts 287°
2026-04-30 12:41 41.55797 33.73273 38053 ft 453 kts 287°
2026-04-30 12:41 41.56250 33.71491 38054 ft 453 kts 287°
2026-04-30 12:42 41.58272 33.63521 38054 ft 453 kts 287°
2026-04-30 12:42 41.59811 33.57439 38055 ft 453 kts 287°
2026-04-30 12:43 41.61832 33.49456 38055 ft 453 kts 287°
2026-04-30 12:43 41.63623 33.42312 38063 ft 453 kts 287°
2026-04-30 12:44 41.65620 33.34319 38063 ft 453 kts 287°
2026-04-30 12:44 41.67614 33.26324 38063 ft 453 kts 287°
2026-04-30 12:45 41.69604 33.18329 38074 ft 453 kts 287°
2026-04-30 12:45 41.71448 33.10889 38074 ft 454 kts 287°